,,PA_Meas_PMT16A,,PR_Meas_QMR101_102,,RH_Meas_QMH101,,SR_Meas_QMS101,,TA_Meas_QMH101,,GenWind,,GenWind,
time,status,PA,status,PR,status,RH,status,SR,status,TA,status,DirAvg,status,SpdAvg,
2010-06-25, 00:00:04,VALID,917.906,VALID,0,VALID,96.9012,VALID,0,VALID,19.4298,VALID,145,VALID,0.0964844,
2010-06-25, 00:01:04,VALID,917.854,VALID,0,VALID,96.8326,VALID,0,VALID,19.4493,VALID,145,VALID,0.471484,
2010-06-25, 00:02:04,VALID,917.846,VALID,0,VALID,96.8326,VALID,0,VALID,19.4103,VALID,145,VALID,0.312109,
2010-06-25, 00:03:04,VALID,917.806,VALID,0,VALID,96.7716,VALID,0,VALID,19.3908,VALID,145,VALID,0.295703,
2010-06-25, 00:04:04,VALID,917.804,VALID,0,VALID,96.8326,VALID,0,VALID,19.3908,VALID,145,VALID,0.325781,
2010-06-25, 00:05:04,VALID,917.755,VALID,0,VALID,96.8631,VALID,0,VALID,19.4103,VALID,145,VALID,0,
2010-06-25, 00:06:04,VALID,917.731,VALID,0,VALID,96.8707,VALID,0,VALID,19.4298,VALID,145,VALID,0.177734,
2010-06-25, 00:07:04,VALID,917.714,VALID,0,VALID,96.7716,VALID,0,VALID,19.3908,VALID,145,VALID,0.240234,
2010-06-25, 00:08:04,VALID,917.696,VALID,0,VALID,96.7488,VALID,0,VALID,19.3518,VALID,145,VALID,0.262891,
2010-06-25, 00:09:04,VALID,917.687,VALID,0,VALID,96.7488,VALID,0,VALID,19.3323,VALID,145,VALID,0.412109,
2010-06-25, 00:10:04,VALID,917.677,VALID,0,VALID,96.8098,VALID,0,VALID,19.3323,VALID,145,VALID,0.327344,
2010-06-25, 00:11:04,VALID,917.637,VALID,0,VALID,96.8707,VALID,0,VALID,19.3518,VALID,145,VALID,0.351563,
2010-06-25, 00:12:04,VALID,917.652,VALID,0,VALID,96.7869,VALID,0,VALID,19.3323,VALID,145,VALID,0.428906,
2010-06-25, 00:13:04,VALID,917.607,VALID,0,VALID,96.764,VALID,0,VALID,19.2723,VALID,145,VALID,0.640625,
2010-06-25, 00:14:04,VALID,917.579,VALID,0,VALID,96.7259,VALID,0,VALID,19.2543,VALID,145,VALID,0.680078,
2010-06-25, 00:15:04,VALID,917.602,VALID,0,VALID,96.6954,VALID,0,VALID,19.2153,VALID,145,VALID,0.610547,
2010-06-25, 00:16:04,VALID,917.589,VALID,0,VALID,96.6344,VALID,0,VALID,19.1568,VALID,145,VALID,0.680469,
2010-06-25, 00:17:04,VALID,917.585,VALID,0,VALID,96.6344,VALID,0,VALID,19.1763,VALID,145,VALID,0.603906,
2010-06-25, 00:18:04,VALID,917.589,VALID,0,VALID,96.6268,VALID,0,VALID,19.1763,VALID,145,VALID,0.509766,
2010-06-25, 00:19:04,VALID,917.574,VALID,0,VALID,96.6115,VALID,0,VALID,19.1749,VALID,145,VALID,0.61875,
2010-06-25, 00:20:04,VALID,917.562,VALID,0,VALID,96.7259,VALID,0,VALID,19.2153,VALID,145,VALID,0.491406,
2010-06-25, 00:21:04,VALID,917.542,VALID,0,VALID,96.6344,VALID,0,VALID,19.2348,VALID,15,VALID,0.971484,
2010-06-25, 00:22:04,VALID,917.522,VALID,0,VALID,96.5811,VALID,0,VALID,19.2153,VALID,340,VALID,0.544922,
2010-06-25, 00:23:04,VALID,917.523,VALID,0,VALID,96.6192,VALID,0,VALID,19.2334,VALID,340,VALID,0.381641,
2010-06-25, 00:24:04,VALID,917.504,VALID,0,VALID,96.5658,VALID,0,VALID,19.2348,VALID,340,VALID,0.512891,
2010-06-25, 00:25:04,VALID,917.457,VALID,0,VALID,96.5811,VALID,0,VALID,19.2334,VALID,340,VALID,0.144141,
2010-06-25, 00:26:04,VALID,917.446,VALID,0,VALID,96.5734,VALID,0,VALID,19.2348,VALID,340,VALID,0.217187,
2010-06-25, 00:27:04,VALID,917.389,VALID,0,VALID,96.6344,VALID,0,VALID,19.2528,VALID,340,VALID,0,
2010-06-25, 00:28:04,VALID,917.39,VALID,0,VALID,96.6192,VALID,0,VALID,19.2933,VALID,340,VALID,0.272656,
2010-06-25, 00:29:04,VALID,917.335,VALID,0,VALID,96.6954,VALID,0,VALID,19.3128,VALID,340,VALID,0.199219,
2010-06-25, 00:30:04,VALID,917.332,VALID,0,VALID,96.6344,VALID,0,VALID,19.3128,VALID,340,VALID,0.198828,
2010-06-25, 00:31:04,VALID,917.317,VALID,0,VALID,96.6878,VALID,0,VALID,19.3128,VALID,340,VALID,0.276172,
2010-06-25, 00:32:04,VALID,917.312,VALID,0,VALID,96.7564,VALID,0,VALID,19.3308,VALID,340,VALID,0.197266,
2010-06-25, 00:33:04,VALID,917.313,VALID,0,VALID,96.7564,VALID,0,VALID,19.3518,VALID,340,VALID,0.30625,
2010-06-25, 00:34:04,VALID,917.31,VALID,0,VALID,96.7107,VALID,0,VALID,19.3323,VALID,340,VALID,0.0902344,
2010-06-25, 00:35:04,VALID,917.269,VALID,0,VALID,96.7488,VALID,0,VALID,19.3113,VALID,340,VALID,0,
2010-06-25, 00:36:04,VALID,917.264,VALID,0,VALID,96.7564,VALID,0,VALID,19.3323,VALID,340,VALID,0,
2010-06-25, 00:37:04,VALID,917.261,VALID,0,VALID,96.8098,VALID,0,VALID,19.3518,VALID,340,VALID,0,
2010-06-25, 00:38:04,VALID,917.243,VALID,0,VALID,96.825,VALID,0,VALID,19.3323,VALID,340,VALID,0,
2010-06-25, 00:39:04,VALID,917.219,VALID,0,VALID,96.8479,VALID,0,VALID,19.3518,VALID,340,VALID,0,
2010-06-25, 00:40:04,VALID,917.24,VALID,0.2,VALID,96.8707,VALID,0,VALID,19.3518,VALID,340,VALID,0,
2010-06-25, 00:41:04,VALID,917.204,VALID,0,VALID,96.8936,VALID,0,VALID,19.3308,VALID,340,VALID,0.100391,
2010-06-25, 00:42:04,VALID,917.229,VALID,0,VALID,96.9317,VALID,0,VALID,19.3908,VALID,340,VALID,0.743359,
2010-06-25, 00:43:04,VALID,917.202,VALID,0,VALID,96.8707,VALID,0,VALID,19.3128,VALID,340,VALID,0.687109,
2010-06-25, 00:44:04,VALID,917.191,VALID,0,VALID,96.8555,VALID,0,VALID,19.2933,VALID,340,VALID,0.666797,
2010-06-25, 00:45:04,VALID,917.186,VALID,0,VALID,96.8631,VALID,0,VALID,19.2543,VALID,340,VALID,0.879297,
2010-06-25, 00:46:04,VALID,917.216,VALID,0,VALID,96.9012,VALID,0,VALID,19.2543,VALID,340,VALID,0.766406,
2010-06-25, 00:47:04,VALID,917.185,VALID,0,VALID,96.8936,VALID,0,VALID,19.2153,VALID,340,VALID,0.786328,
2010-06-25, 00:48:04,VALID,917.177,VALID,0,VALID,96.9089,VALID,0,VALID,19.2153,VALID,340,VALID,0.567187,
2010-06-25, 00:49:04,VALID,917.155,VALID,0,VALID,96.9622,VALID,0,VALID,19.2153,VALID,340,VALID,0.734766,
2010-06-25, 00:50:04,VALID,917.146,VALID,0,VALID,96.9394,VALID,0,VALID,19.2153,VALID,340,VALID,0.897656,
2010-06-25, 00:51:04,VALID,917.131,VALID,0,VALID,96.9851,VALID,0,VALID,19.1944,VALID,340,VALID,0.273047,
2010-06-25, 00:52:04,VALID,917.122,VALID,0,VALID,97.0003,VALID,0,VALID,19.2348,VALID,340,VALID,0.675781,
2010-06-25, 00:53:04,VALID,917.118,VALID,0,VALID,97.0232,VALID,0,VALID,19.2348,VALID,340,VALID,0.686719,
2010-06-25, 00:54:04,VALID,917.1,VALID,0,VALID,97.0232,VALID,0,VALID,19.2153,VALID,340,VALID,0.635938,
2010-06-25, 00:55:04,VALID,917.131,VALID,0,VALID,97.0461,VALID,0,VALID,19.2153,VALID,340,VALID,0.467578,
2010-06-25, 00:56:04,VALID,917.142,VALID,0,VALID,97.0537,VALID,0,VALID,19.2153,VALID,340,VALID,0.313281,
2010-06-25, 00:57:04,VALID,917.136,VALID,0,VALID,97.008,VALID,0,VALID,19.2168,VALID,340,VALID,0.500391,
2010-06-25, 00:58:04,VALID,917.155,VALID,0,VALID,97.0461,VALID,0,VALID,19.1958,VALID,340,VALID,0.553516,
2010-06-25, 00:59:04,VALID,917.16,VALID,0,VALID,97.0461,VALID,0,VALID,19.1763,VALID,340,VALID,0.6625,
2010-06-25, 01:00:04,VALID,917.122,VALID,0,VALID,97.0461,VALID,0,VALID,19.1763,VALID,340,VALID,0.820313,
2010-06-25, 01:01:04,VALID,917.109,VALID,0,VALID,97.0461,VALID,0,VALID,19.1568,VALID,340,VALID,0.940234,
2010-06-25, 01:02:04,VALID,917.098,VALID,0,VALID,97.0461,VALID,0,VALID,19.1373,VALID,340,VALID,0.937109,
2010-06-25, 01:03:04,VALID,917.092,VALID,0,VALID,97.0613,VALID,0,VALID,19.1373,VALID,340,VALID,0.959375,
2010-06-25, 01:04:04,VALID,917.075,VALID,0,VALID,97.069,VALID,0,VALID,19.1388,VALID,340,VALID,0.706641,
2010-06-25, 01:05:04,VALID,917.083,VALID,0,VALID,97.0461,VALID,0,VALID,19.1178,VALID,340,VALID,0.728906,
2010-06-25, 01:06:04,VALID,917.116,VALID,0,VALID,97.0766,VALID,0,VALID,19.0788,VALID,340,VALID,0.319531,
2010-06-25, 01:07:04,VALID,917.086,VALID,0,VALID,97.0613,VALID,0,VALID,19.0788,VALID,340,VALID,0.667188,
2010-06-25, 01:08:04,VALID,917.101,VALID,0,VALID,97.0842,VALID,0,VALID,19.0983,VALID,340,VALID,0.598047,
2010-06-25, 01:09:04,VALID,917.096,VALID,0,VALID,97.1223,VALID,0,VALID,19.1373,VALID,340,VALID,0.250391,
2010-06-25, 01:10:04,VALID,917.092,VALID,0,VALID,97.1147,VALID,0,VALID,19.1178,VALID,340,VALID,0.780469,
2010-06-25, 01:11:04,VALID,917.081,VALID,0,VALID,97.0842,VALID,0,VALID,19.1178,VALID,340,VALID,0.547266,
2010-06-25, 01:12:04,VALID,917.066,VALID,0,VALID,97.1376,VALID,0,VALID,19.1164,VALID,340,VALID,0.578906,
2010-06-25, 01:13:04,VALID,917.077,VALID,0,VALID,97.1528,VALID,0,VALID,19.1178,VALID,340,VALID,0.679297,
2010-06-25, 01:14:04,VALID,917.071,VALID,0,VALID,97.1299,VALID,0,VALID,19.1178,VALID,111,VALID,0.918359,
2010-06-25, 01:15:04,VALID,917.056,VALID,0,VALID,97.1299,VALID,0,VALID,19.1178,VALID,111,VALID,0.653516,
2010-06-25, 01:16:04,VALID,917.061,VALID,0,VALID,97.1681,VALID,0,VALID,19.1178,VALID,111,VALID,0.758984,
2010-06-25, 01:17:04,VALID,917.076,VALID,0,VALID,97.1528,VALID,0,VALID,19.1178,VALID,111,VALID,0.553906,
2010-06-25, 01:18:04,VALID,917.029,VALID,0,VALID,97.1986,VALID,0,VALID,19.1373,VALID,111,VALID,0.346875,
2010-06-25, 01:19:04,VALID,917.046,VALID,0,VALID,97.1986,VALID,0,VALID,19.1373,VALID,111,VALID,0.392969,
2010-06-25, 01:20:04,VALID,917.015,VALID,0,VALID,97.1986,VALID,0,VALID,19.1373,VALID,111,VALID,0.675,
2010-06-25, 01:21:04,VALID,916.978,VALID,0,VALID,97.2138,VALID,0,VALID,19.1373,VALID,111,VALID,0.228906,
2010-06-25, 01:22:04,VALID,916.994,VALID,0,VALID,97.1909,VALID,0,VALID,19.1583,VALID,111,VALID,0.45625,
2010-06-25, 01:23:04,VALID,916.956,VALID,0,VALID,97.229,VALID,0,VALID,19.1568,VALID,111,VALID,0.511328,
2010-06-25, 01:24:04,VALID,916.953,VALID,0,VALID,97.2062,VALID,0,VALID,19.1373,VALID,111,VALID,0.373047,
2010-06-25, 01:25:04,VALID,916.95,VALID,0,VALID,97.229,VALID,0,VALID,19.1373,VALID,111,VALID,0.33125,
2010-06-25, 01:26:04,VALID,916.901,VALID,0,VALID,97.2062,VALID,0,VALID,19.1164,VALID,111,VALID,0.371094,
2010-06-25, 01:27:04,VALID,916.914,VALID,0,VALID,97.1757,VALID,0,VALID,19.1178,VALID,111,VALID,0.481641,
2010-06-25, 01:28:04,VALID,916.885,VALID,0,VALID,97.2138,VALID,0,VALID,19.0983,VALID,111,VALID,0.247656,
2010-06-25, 01:29:04,VALID,916.877,VALID,0,VALID,97.2062,VALID,0,VALID,19.0983,VALID,111,VALID,0.442187,
2010-06-25, 01:30:04,VALID,916.895,VALID,0,VALID,97.2138,VALID,0,VALID,19.0788,VALID,111,VALID,0.398438,
2010-06-25, 01:31:04,VALID,916.875,VALID,0,VALID,97.2519,VALID,0,VALID,19.1178,VALID,111,VALID,0.640625,
2010-06-25, 01:32:04,VALID,916.878,VALID,0,VALID,97.2367,VALID,0,VALID,19.0788,VALID,111,VALID,0.594531,
2010-06-25, 01:33:04,VALID,916.879,VALID,0,VALID,97.229,VALID,0,VALID,19.0593,VALID,111,VALID,0.618359,
2010-06-25, 01:34:04,VALID,916.833,VALID,0,VALID,97.229,VALID,0,VALID,19.0398,VALID,111,VALID,0.740625,
2010-06-25, 01:35:04,VALID,916.798,VALID,0,VALID,97.2062,VALID,0,VALID,19.0398,VALID,111,VALID,0.589844,
2010-06-25, 01:36:04,VALID,916.793,VALID,0,VALID,97.2062,VALID,0,VALID,19.0203,VALID,111,VALID,0.736719,
2010-06-25, 01:37:04,VALID,916.786,VALID,0,VALID,97.2443,VALID,0,VALID,19.0008,VALID,111,VALID,0.857031,
2010-06-25, 01:38:04,VALID,916.769,VALID,0,VALID,97.2367,VALID,0,VALID,19.0008,VALID,111,VALID,0.869922,
2010-06-25, 01:39:04,VALID,916.76,VALID,0,VALID,97.2367,VALID,0,VALID,19.0008,VALID,111,VALID,0.795703,
2010-06-25, 01:40:04,VALID,916.739,VALID,0,VALID,97.2595,VALID,0,VALID,19.0008,VALID,111,VALID,1.04883,
2010-06-25, 01:41:04,VALID,916.738,VALID,0,VALID,97.2595,VALID,0,VALID,19.0203,VALID,111,VALID,0.910547,
2010-06-25, 01:42:04,VALID,916.732,VALID,0,VALID,97.2672,VALID,0,VALID,19.0203,VALID,111,VALID,1.10156,
2010-06-25, 01:43:04,VALID,916.706,VALID,0,VALID,97.2519,VALID,0,VALID,19.0203,VALID,111,VALID,1.17617,
2010-06-25, 01:44:04,VALID,916.703,VALID,0,VALID,97.2443,VALID,0,VALID,19.0203,VALID,119,VALID,1.00703,
2010-06-25, 01:45:04,VALID,916.674,VALID,0,VALID,97.2367,VALID,0,VALID,19.0593,VALID,119,VALID,0.828516,
2010-06-25, 01:46:04,VALID,916.644,VALID,0,VALID,97.2519,VALID,0,VALID,19.0788,VALID,119,VALID,0.95625,
2010-06-25, 01:47:04,VALID,916.635,VALID,0,VALID,97.2443,VALID,0,VALID,19.0579,VALID,119,VALID,0.962109,
2010-06-25, 01:48:04,VALID,916.601,VALID,0,VALID,97.2595,VALID,0,VALID,19.0983,VALID,119,VALID,0.666406,
2010-06-25, 01:49:04,VALID,916.575,VALID,0,VALID,97.229,VALID,0,VALID,19.0969,VALID,119,VALID,0.864062,
2010-06-25, 01:50:04,VALID,916.53,VALID,0,VALID,97.2443,VALID,0,VALID,19.0969,VALID,119,VALID,0.674609,
2010-06-25, 01:51:04,VALID,916.51,VALID,0,VALID,97.2367,VALID,0,VALID,19.1178,VALID,119,VALID,0.608984,
2010-06-25, 01:52:04,VALID,916.51,VALID,0,VALID,97.2214,VALID,0,VALID,19.0579,VALID,119,VALID,0.907422,
2010-06-25, 01:53:04,VALID,916.512,VALID,0,VALID,97.1909,VALID,0,VALID,19.0788,VALID,119,VALID,0.848047,
2010-06-25, 01:54:04,VALID,916.505,VALID,0,VALID,97.1833,VALID,0,VALID,19.0788,VALID,119,VALID,0.835938,
2010-06-25, 01:55:04,VALID,916.488,VALID,0,VALID,97.1757,VALID,0,VALID,19.0788,VALID,119,VALID,0.832812,
2010-06-25, 01:56:04,VALID,916.465,VALID,0,VALID,97.2062,VALID,0,VALID,19.0983,VALID,119,VALID,0.743359,
2010-06-25, 01:57:04,VALID,916.438,VALID,0,VALID,97.1986,VALID,0,VALID,19.0788,VALID,119,VALID,0.914063,
2010-06-25, 01:58:04,VALID,916.414,VALID,0,VALID,97.1757,VALID,0,VALID,19.0983,VALID,119,VALID,0.820703,
2010-06-25, 01:59:04,VALID,916.399,VALID,0,VALID,97.2214,VALID,0,VALID,19.1178,VALID,119,VALID,0.470703,
2010-06-25, 02:00:04,VALID,916.387,VALID,0,VALID,97.2367,VALID,0,VALID,19.1373,VALID,119,VALID,0.786328,
2010-06-25, 02:01:04,VALID,916.38,VALID,0,VALID,97.2367,VALID,0,VALID,19.1554,VALID,119,VALID,0.0644531,
2010-06-25, 02:02:04,VALID,916.352,VALID,0,VALID,97.2443,VALID,0,VALID,19.1958,VALID,119,VALID,0.414453,
2010-06-25, 02:03:04,VALID,916.33,VALID,0,VALID,97.2367,VALID,0,VALID,19.1944,VALID,119,VALID,0.322656,
2010-06-25, 02:04:04,VALID,916.35,VALID,0,VALID,97.2062,VALID,0,VALID,19.1958,VALID,119,VALID,0.458984,
2010-06-25, 02:05:04,VALID,916.329,VALID,0,VALID,97.2214,VALID,0,VALID,19.1763,VALID,119,VALID,0.209375,
2010-06-25, 02:06:04,VALID,916.261,VALID,0,VALID,97.1986,VALID,0,VALID,19.2153,VALID,119,VALID,0.176172,
2010-06-25, 02:07:04,VALID,916.271,VALID,0,VALID,97.1986,VALID,0,VALID,19.2153,VALID,119,VALID,0.442578,
2010-06-25, 02:08:04,VALID,916.268,VALID,0,VALID,97.2062,VALID,0,VALID,19.2348,VALID,119,VALID,0.419141,
2010-06-25, 02:09:04,VALID,916.25,VALID,0,VALID,97.1833,VALID,0,VALID,19.2348,VALID,119,VALID,0.401563,
2010-06-25, 02:10:04,VALID,916.21,VALID,0,VALID,97.1909,VALID,0,VALID,19.2348,VALID,119,VALID,0.609766,
2010-06-25, 02:11:04,VALID,916.224,VALID,0,VALID,97.1528,VALID,0,VALID,19.2153,VALID,119,VALID,0.387109,
2010-06-25, 02:12:04,VALID,916.244,VALID,0,VALID,97.1833,VALID,0,VALID,19.2348,VALID,119,VALID,0.360156,
2010-06-25, 02:13:04,VALID,916.23,VALID,0,VALID,97.1376,VALID,0,VALID,19.1958,VALID,119,VALID,0.586719,
2010-06-25, 02:14:04,VALID,916.249,VALID,0,VALID,97.1604,VALID,0,VALID,19.1958,VALID,119,VALID,0.402344,
2010-06-25, 02:15:04,VALID,916.242,VALID,0,VALID,97.1223,VALID,0,VALID,19.1749,VALID,119,VALID,0.502344,
2010-06-25, 02:16:04,VALID,916.222,VALID,0,VALID,97.1452,VALID,0,VALID,19.1554,VALID,119,VALID,0.656641,
2010-06-25, 02:17:04,VALID,916.225,VALID,0,VALID,97.1299,VALID,0,VALID,19.1763,VALID,119,VALID,0.732031,
2010-06-25, 02:18:04,VALID,916.219,VALID,0,VALID,97.1223,VALID,0,VALID,19.1763,VALID,119,VALID,0.910156,
2010-06-25, 02:19:04,VALID,916.219,VALID,0,VALID,97.0766,VALID,0,VALID,19.1763,VALID,119,VALID,0.740625,
2010-06-25, 02:20:04,VALID,916.211,VALID,0,VALID,97.069,VALID,0,VALID,19.1958,VALID,119,VALID,0.946875,
2010-06-25, 02:21:04,VALID,916.193,VALID,0,VALID,97.0385,VALID,0,VALID,19.1554,VALID,119,VALID,0.952734,
2010-06-25, 02:22:04,VALID,916.173,VALID,0,VALID,97.008,VALID,0,VALID,19.1554,VALID,119,VALID,0.755078,
2010-06-25, 02:23:04,VALID,916.182,VALID,0,VALID,96.947,VALID,0,VALID,19.1568,VALID,119,VALID,0.929297,
2010-06-25, 02:24:04,VALID,916.173,VALID,0,VALID,96.9317,VALID,0,VALID,19.1763,VALID,119,VALID,0.609375,
2010-06-25, 02:25:04,VALID,916.123,VALID,0,VALID,96.9241,VALID,0,VALID,19.1554,VALID,119,VALID,0.724609,
2010-06-25, 02:26:04,VALID,916.107,VALID,0,VALID,96.886,VALID,0,VALID,19.1568,VALID,119,VALID,0.619922,
2010-06-25, 02:27:04,VALID,916.049,VALID,0,VALID,96.8707,VALID,0,VALID,19.1359,VALID,119,VALID,0.714063,
2010-06-25, 02:28:04,VALID,916.032,VALID,0,VALID,96.8479,VALID,0,VALID,19.1568,VALID,119,VALID,0.973047,
2010-06-25, 02:29:04,VALID,916.023,VALID,0,VALID,96.8403,VALID,0,VALID,19.1568,VALID,119,VALID,0.499609,
2010-06-25, 02:30:04,VALID,915.995,VALID,0,VALID,96.8631,VALID,0,VALID,19.1568,VALID,119,VALID,0.340625,
2010-06-25, 02:31:04,VALID,915.969,VALID,0,VALID,96.8707,VALID,0,VALID,19.1749,VALID,119,VALID,0.486328,
2010-06-25, 02:32:04,VALID,915.966,VALID,0,VALID,96.886,VALID,0,VALID,19.1958,VALID,119,VALID,0.344922,
2010-06-25, 02:33:04,VALID,915.954,VALID,0,VALID,96.886,VALID,0,VALID,19.2153,VALID,119,VALID,0.485547,
2010-06-25, 02:34:04,VALID,915.956,VALID,0,VALID,96.886,VALID,0,VALID,19.2153,VALID,119,VALID,0.223828,
2010-06-25, 02:35:04,VALID,915.969,VALID,0,VALID,96.9089,VALID,0,VALID,19.2139,VALID,119,VALID,0.220313,
2010-06-25, 02:36:04,VALID,915.964,VALID,0,VALID,96.9241,VALID,0,VALID,19.2348,VALID,119,VALID,0.0417969,
2010-06-25, 02:37:04,VALID,915.984,VALID,0,VALID,96.9165,VALID,0,VALID,19.2334,VALID,119,VALID,0.00820312,
2010-06-25, 02:38:04,VALID,915.977,VALID,0,VALID,96.8707,VALID,0,VALID,19.2348,VALID,119,VALID,0,
2010-06-25, 02:39:04,VALID,915.97,VALID,0,VALID,96.9165,VALID,0,VALID,19.2139,VALID,119,VALID,0.270703,
2010-06-25, 02:40:04,VALID,915.982,VALID,0,VALID,96.9165,VALID,0,VALID,19.2543,VALID,119,VALID,0.319531,
2010-06-25, 02:41:04,VALID,916.017,VALID,0,VALID,96.8936,VALID,0,VALID,19.1944,VALID,119,VALID,0.321484,
2010-06-25, 02:42:04,VALID,916.013,VALID,0,VALID,96.825,VALID,0,VALID,19.1763,VALID,119,VALID,0.159766,
2010-06-25, 02:43:04,VALID,916.001,VALID,0,VALID,96.9012,VALID,0,VALID,19.1763,VALID,119,VALID,0,
2010-06-25, 02:44:04,VALID,915.997,VALID,0,VALID,96.9165,VALID,0,VALID,19.1763,VALID,119,VALID,0,
2010-06-25, 02:45:04,VALID,915.979,VALID,0,VALID,96.9317,VALID,0,VALID,19.1749,VALID,119,VALID,0,
2010-06-25, 02:46:04,VALID,915.993,VALID,0,VALID,96.9698,VALID,0.107441,VALID,19.1944,VALID,119,VALID,0.308203,
2010-06-25, 02:47:04,VALID,915.96,VALID,0,VALID,97.0003,VALID,0.107441,VALID,19.2139,VALID,119,VALID,0.186328,
2010-06-25, 02:48:04,VALID,915.992,VALID,0,VALID,96.9927,VALID,0,VALID,19.2139,VALID,119,VALID,0.301953,
2010-06-25, 02:49:04,VALID,915.988,VALID,0,VALID,97.0156,VALID,0.107441,VALID,19.2543,VALID,119,VALID,0,
2010-06-25, 02:50:04,VALID,915.988,VALID,0,VALID,97.0156,VALID,0,VALID,19.2139,VALID,119,VALID,0.0046875,
2010-06-25, 02:51:04,VALID,915.984,VALID,0,VALID,96.947,VALID,0,VALID,19.1958,VALID,119,VALID,0.454688,
2010-06-25, 02:52:04,VALID,915.981,VALID,0,VALID,96.8707,VALID,0,VALID,19.1164,VALID,119,VALID,0.511719,
2010-06-25, 02:53:04,VALID,915.943,VALID,0,VALID,96.8479,VALID,0,VALID,19.0774,VALID,119,VALID,0.782031,
2010-06-25, 02:54:04,VALID,915.95,VALID,0,VALID,96.8784,VALID,0,VALID,19.0384,VALID,119,VALID,0.701563,
2010-06-25, 02:55:04,VALID,915.92,VALID,0,VALID,96.9241,VALID,0,VALID,19.0384,VALID,119,VALID,0.923828,
2010-06-25, 02:56:04,VALID,915.932,VALID,0,VALID,96.947,VALID,0,VALID,19.0384,VALID,119,VALID,0.690625,
2010-06-25, 02:57:04,VALID,915.897,VALID,0,VALID,96.9546,VALID,0,VALID,19.0593,VALID,119,VALID,0.958984,
2010-06-25, 02:58:04,VALID,915.877,VALID,0,VALID,96.9622,VALID,0,VALID,19.0384,VALID,119,VALID,0.721094,
2010-06-25, 02:59:04,VALID,915.868,VALID,0,VALID,96.9394,VALID,0,VALID,19.0189,VALID,119,VALID,0.890234,
2010-06-25, 03:00:04,VALID,915.789,VALID,0,VALID,97.0003,VALID,0.107441,VALID,19.0398,VALID,119,VALID,0.772656,
2010-06-25, 03:01:04,VALID,915.803,VALID,0,VALID,97.0156,VALID,0,VALID,19.0384,VALID,119,VALID,0.841016,
2010-06-25, 03:02:04,VALID,915.785,VALID,0,VALID,97.0003,VALID,0,VALID,19.0189,VALID,131,VALID,0.766016,
2010-06-25, 03:03:04,VALID,915.794,VALID,0,VALID,97.0156,VALID,0,VALID,19.0384,VALID,131,VALID,0.507422,
2010-06-25, 03:04:04,VALID,915.779,VALID,0,VALID,97.0308,VALID,0,VALID,19.0579,VALID,131,VALID,0.673047,
2010-06-25, 03:05:04,VALID,915.749,VALID,0,VALID,97.0232,VALID,0,VALID,19.0774,VALID,151,VALID,1.0125,
2010-06-25, 03:06:04,VALID,915.756,VALID,0,VALID,97.0308,VALID,0,VALID,19.0579,VALID,130,VALID,1.40508,
2010-06-25, 03:07:04,VALID,915.788,VALID,0,VALID,97.0003,VALID,0.107441,VALID,19.0579,VALID,136,VALID,1.09375,
2010-06-25, 03:08:04,VALID,915.811,VALID,0,VALID,97.0385,VALID,0,VALID,19.0384,VALID,97,VALID,0.983594,
2010-06-25, 03:09:04,VALID,915.783,VALID,0,VALID,97.0613,VALID,0,VALID,19.0384,VALID,124,VALID,0.907031,
2010-06-25, 03:10:04,VALID,915.839,VALID,0,VALID,97.0766,VALID,0.107441,VALID,19.0189,VALID,115,VALID,1.2582,
2010-06-25, 03:11:04,VALID,915.8,VALID,0,VALID,97.1071,VALID,0.107441,VALID,19.0189,VALID,133,VALID,1.29609,
2010-06-25, 03:12:04,VALID,915.809,VALID,0,VALID,97.1071,VALID,0,VALID,18.9994,VALID,133,VALID,1.07656,
2010-06-25, 03:13:04,VALID,915.781,VALID,0,VALID,97.1376,VALID,0.107441,VALID,19.0189,VALID,151,VALID,1.10508,
2010-06-25, 03:14:04,VALID,915.758,VALID,0,VALID,97.1604,VALID,0,VALID,19.0384,VALID,159,VALID,0.850391,
2010-06-25, 03:15:04,VALID,915.75,VALID,0,VALID,97.1681,VALID,0,VALID,19.0189,VALID,159,VALID,1.09492,
2010-06-25, 03:16:04,VALID,915.77,VALID,0,VALID,97.1909,VALID,0,VALID,19.0398,VALID,159,VALID,0.721094,
2010-06-25, 03:17:04,VALID,915.716,VALID,0,VALID,97.1833,VALID,0.107441,VALID,19.0384,VALID,159,VALID,0.69375,
2010-06-25, 03:18:04,VALID,915.754,VALID,0,VALID,97.2062,VALID,0,VALID,19.0384,VALID,159,VALID,0.693359,
2010-06-25, 03:19:04,VALID,915.74,VALID,0,VALID,97.1833,VALID,0,VALID,19.0189,VALID,138,VALID,0.767187,
2010-06-25, 03:20:04,VALID,915.733,VALID,0,VALID,97.1986,VALID,0,VALID,19.0189,VALID,134,VALID,0.963281,
2010-06-25, 03:21:04,VALID,915.768,VALID,0,VALID,97.1909,VALID,0.107441,VALID,19.0189,VALID,110,VALID,1.61211,
2010-06-25, 03:22:04,VALID,915.793,VALID,0,VALID,97.1986,VALID,0,VALID,19.0189,VALID,110,VALID,1.08086,
2010-06-25, 03:23:04,VALID,915.806,VALID,0,VALID,97.1757,VALID,0,VALID,19.0203,VALID,116,VALID,1.71289,
2010-06-25, 03:24:04,VALID,915.808,VALID,0,VALID,97.1986,VALID,0.107441,VALID,18.9994,VALID,126,VALID,1.62188,
2010-06-25, 03:25:04,VALID,915.829,VALID,0,VALID,97.2214,VALID,0,VALID,19.0189,VALID,137,VALID,1.0457,
2010-06-25, 03:26:04,VALID,915.831,VALID,0,VALID,97.2214,VALID,0,VALID,19.0398,VALID,131,VALID,1.58555,
2010-06-25, 03:27:04,VALID,915.847,VALID,0,VALID,97.2062,VALID,0.107441,VALID,19.0398,VALID,131,VALID,1.92227,
2010-06-25, 03:28:04,VALID,915.881,VALID,0,VALID,97.229,VALID,0,VALID,19.0398,VALID,132,VALID,1.5168,
2010-06-25, 03:29:04,VALID,915.875,VALID,0,VALID,97.2748,VALID,0.107441,VALID,19.0189,VALID,116,VALID,1.76133,
2010-06-25, 03:30:04,VALID,915.833,VALID,0,VALID,97.229,VALID,0,VALID,19.0398,VALID,113,VALID,1.58984,
2010-06-25, 03:31:04,VALID,915.827,VALID,0,VALID,97.2519,VALID,0.107441,VALID,19.0203,VALID,113,VALID,1.19336,
2010-06-25, 03:32:04,VALID,915.792,VALID,0,VALID,97.2672,VALID,0,VALID,19.0203,VALID,121,VALID,1.02305,
2010-06-25, 03:33:04,VALID,915.81,VALID,0,VALID,97.2824,VALID,0,VALID,19.0203,VALID,109,VALID,0.651172,
2010-06-25, 03:34:04,VALID,915.812,VALID,0,VALID,97.2748,VALID,0,VALID,19.0398,VALID,109,VALID,0.949609,
2010-06-25, 03:35:04,VALID,915.721,VALID,0,VALID,97.2748,VALID,0.107441,VALID,19.0384,VALID,115,VALID,1.04414,
2010-06-25, 03:36:04,VALID,915.682,VALID,0,VALID,97.29,VALID,0,VALID,19.0384,VALID,148,VALID,0.618359,
2010-06-25, 03:37:04,VALID,915.687,VALID,0,VALID,97.2977,VALID,0,VALID,19.0788,VALID,147,VALID,0.894922,
2010-06-25, 03:38:04,VALID,915.643,VALID,0,VALID,97.2748,VALID,0.107441,VALID,19.0788,VALID,147,VALID,0.39375,
2010-06-25, 03:39:04,VALID,915.68,VALID,0,VALID,97.2672,VALID,0,VALID,19.0788,VALID,147,VALID,0.575,
2010-06-25, 03:40:04,VALID,915.618,VALID,0,VALID,97.2519,VALID,0,VALID,19.0579,VALID,147,VALID,1.04492,
2010-06-25, 03:41:04,VALID,915.55,VALID,0,VALID,97.2595,VALID,0.107441,VALID,19.0579,VALID,147,VALID,0.979688,
2010-06-25, 03:42:04,VALID,915.563,VALID,0,VALID,97.2519,VALID,0,VALID,19.0579,VALID,146,VALID,0.710547,
2010-06-25, 03:43:04,VALID,915.513,VALID,0,VALID,97.2443,VALID,0.107441,VALID,19.0788,VALID,146,VALID,0.633594,
2010-06-25, 03:44:04,VALID,915.48,VALID,0,VALID,97.2214,VALID,0,VALID,19.0579,VALID,146,VALID,0.965625,